sat.trackr.live / text

‹ back to catalog

STARLINK-5552

NORAD 56339 · 2023-058Y

PAYLOAD ACTIVE UNKNOWN

§ Identity

Operator
Country
US
Launch date
2023-04-27
Launch site
AFWTR
Launch vehicle
Mass (kg)
RCS (m²)

Purposes: comms

External: N2YO · Heavens-Above · Gunter

§ Orbital elements

Epoch: 2026-05-24T22:53:44.335104Z

Period
95.64 min
Inclination
97.4509°
Eccentricity
0.0002087
Mean motion
15.05657606 rev/d
Perigee alt
548.0 km
Apogee alt
550.9 km
Semi-major
6,927.6 km
B*
-1.1847e-4
RAAN
144.9774°
Arg perigee
108.2207°
Mean anomaly
251.9247°
Rev number
16,960

§ Raw data

STARLINK-55521 56339U 23058Y   26144.95398536 -.00001768  00000+0 -11847-3 0  99962 56339  97.4509 144.9774 0002087 108.2207 251.9247 15.05657606169608

JSON: /api/v1/satellites/56339 · /tle

For live sub-satellite position, see the globe view (requires WebGL).

§ Visibility from observer

Set your observer location to see the next 7 days of passes ≥ 10°. The values pass through the URL so the page stays shareable.

No JS? Fill the form by hand. The geolocation button needs JavaScript.